Location: Gadern
(49.5873°N, 8.8138°E)
Time: 00:32:18
(UTC+00:00)

ATLAS 3B R/B - Pass Details

Date: 19 May 2025
Orbit: 935 x 1258 km, 63.8° (Epoch: 22 June)

Event Time Altitude Azimuth Distance (km) Brightness Sun altitude
Exits shadow 23:17:18 19° 225° (SW) 2,473 4.2 -20.4°
Maximum altitude 23:22:59 83° 312° (NW) 1,235 3.0 -20.4°
Drops below altitude 10° 23:30:54 10° 42° (NE) 3,241 5.9 -20.4°
Sets 23:33:44 0° 43° (NE) 4,219 6.6 -20.4°
